Wind_Speed
5 5 5 10 9 9 9 10 3 9 10 4 14 9 12 3 2 2 9 8 1 1 4 7 10 14 18 23 26 27 26 25 25 24 32 34 26 20 16 17 18 19 18
6 6 8 7 8 12 5 5 7 9 7 13 6 8 10 12 3 6 3 4 3 2 1 2 6 9 13 18 21 26 29 27 26 28 31 34 36 25 22 20 19 20 18
5 7 6 6 6 5 7 7 5 12 10 18 14 15 15 5 10 11 12 9 6 4 4 4 2 3 8 11 15 21 28 27 24 28 32 30 37 35 27 23 18 19 19
4 6 7 2 7 19 16 4 11 12 22 13 14 16 12 7 9 8 8 10 7 6 6 2 3 4 6 8 11 11 16 18 22 27 34 31 35 38 30 28 22 19 20
4 7 2 5 8 17 10 14 17 23 20 15 27 12 8 6 8 7 10 6 7 5 4 2 4 7 5 6 7 6 8 12 16 19 30 36 39 40 35 33 29 23 20
6 7 9 8 9 14 9 12 8 6 13 11 18 16 16 4 8 8 12 9 7 3 1 2 7 6 6 5 5 6 8 10 11 16 19 28 31 42 38 36 37 32 25
12 9 6 11 8 7 5 5 5 7 3 12 17 20 5 8 11 14 8 8 6 4 1 3 3 5 6 6 6 9 9 11 13 11 10 17 28 44 40 39 38 37 31
11 9 5 7 7 7 12 12 7 4 5 8 9 12 4 4 17 6 8 8 5 6 4 2 6 5 3 6 8 10 11 13 12 10 9 16 28 42 40 39 39 37 34
8 9 6 6 8 8 5 12 18 3 6 11 11 1 3 4 9 12 3 6 6 6 5 5 3 4 6 5 6 6 10 17 13 9 6 11 25 36 42 40 39 40 38
10 8 7 6 6 6 10 9 11 7 7 11 15 5 6 6 1 3 4 7 8 7 7 4 4 6 5 7 7 7 13 17 14 10 8 6 22 29 38 40 40 42 42
10 12 11 9 4 9 7 7 9 7 10 11 13 14 13 10 15 8 1 5 13 10 6 5 6 5 7 6 6 11 15 17 11 8 8 10 12 26 33 40 43 47 44
19 20 15 10 6 9 11 8 6 9 9 9 9 10 16 11 7 11 4 2 3 8 7 5 5 4 6 7 7 13 13 13 6 5 5 7 8 13 24 35 41 43 39
16 21 16 11 8 9 10 9 9 9 11 9 7 9 12 16 20 15 9 5 4 5 4 3 3 3 6 7 6 9 8 6 4 4 4 3 4 9 16 29 39 40 39
14 4 13 6 9 13 14 13 11 11 11 6 8 8 10 14 17 11 5 3 3 1 3 2 2 2 6 1 5 6 8 5 4 3 3 4 6 1 13 18 33 45 45
12 10 11 9 12 15 15 15 14 15 14 12 12 12 11 14 9 8 4 4 2 3 1 3 2 2 8 2 5 5 7 3 3 4 4 3 4 6 5 17 22 51 43
9 11 8 10 12 14 15 15 15 16 16 12 15 11 9 12 15 12 7 2 3 8 2 5 5 2 2 6 5 2 5 4 3 4 4 3 3 5 8 5 12 27 33
15 16 15 15 16 18 18 17 18 18 21 21 16 15 17 14 17 14 8 6 6 9 0 3 6 4 2 2 3 3 3 2 5 4 3 4 4 3 5 5 6 11 26
11 13 15 17 17 18 18 18 18 17 18 17 15 16 18 17 16 13 10 8 6 2 5 8 9 8 6 2 3 0 5 4 5 2 2 5 5 5 4 4 4 4 7
11 12 13 15 16 16 17 17 17 17 18 18 18 19 20 20 19 13 9 4 7 9 9 10 12 13 11 6 6 6 3 2 1 2 1 1 4 5 6 3 3 4 6
7 10 13 14 14 15 16 17 17 16 16 16 17 20 21 22 20 18 10 12 17 12 13 13 15 16 10 13 11 14 9 6 4 4 4 3 3 2 3 4 3 4 7
5 6 6 7 10 12 8 7 9 10 12 14 16 18 20 23 23 21 13 15 14 15 15 14 11 14 13 12 12 12 16 12 5 4 2 5 3 6 2 2 5 7 9
8 7 7 8 9 10 15 16 14 13 12 14 17 19 18 20 24 17 19 17 18 17 16 12 14 18 19 18 16 11 16 10 4 5 6 7 5 7 7 4 5 10 9
12 11 8 9 11 12 14 17 19 20 20 17 18 21 19 19 17 19 16 18 19 17 18 16 10 6 19 16 13 11 3 7 8 8 9 9 6 7 7 6 9 8 9
16 17 17 16 17 15 16 18 22 21 17 18 17 20 21 20 17 18 18 17 20 20 19 18 11 8 11 15 13 11 7 6 6 10 11 4 8 7 7 8 9 7 8
21 20 20 22 23 18 18 24 23 19 20 18 16 19 19 22 20 20 20 20 19 16 15 19 16 12 12 16 14 13 12 12 11 10 13 7 12 11 9 9 10 9 10
22 23 22 23 28 29 29 23 27 27 21 18 18 17 15 20 15 20 24 24 21 20 21 19 17 13 17 18 18 15 15 15 10 7 15 10 16 11 5 11 10 9 10
Wind_Direction
267 266 246 280 183 229 302 263 293 300 303 311 6 256 298 328 189 44 228 187 128 171 278 252 239 228 228 233 234 238 240 233 233 223 224 225 223 235 225 229 224 219 208
284 300 272 296 270 287 264 253 298 302 304 339 328 342 299 269 176 12 107 130 41 71 10 281 252 236 236 242 240 240 235 232 232 222 223 224 216 223 222 219 214 218 205
277 296 309 317 248 266 281 256 316 307 343 356 341 327 318 348 89 78 78 63 71 35 15 346 326 262 241 260 255 257 240 241 244 232 225 221 216 219 222 216 205 210 210
227 255 290 53 289 281 273 136 356 7 25 342 328 313 310 52 88 89 49 54 42 34 344 352 1 327 290 282 278 261 249 253 255 245 233 228 220 215 215 211 198 205 207
277 266 265 312 277 282 282 56 41 35 356 323 305 350 356 126 117 104 86 94 85 18 336 269 331 318 290 317 320 285 270 284 280 261 244 232 223 205 208 204 196 198 199
201 225 257 266 261 285 72 46 53 62 235 303 321 330 307 183 135 108 119 111 66 21 319 297 337 335 293 307 331 329 311 303 301 286 261 238 216 204 203 201 198 198 198
282 233 276 232 251 295 358 52 351 328 319 343 336 336 118 72 182 133 107 105 73 88 105 270 3 2 305 273 294 331 325 328 319 312 269 227 217 199 201 201 200 199 201
278 288 280 309 9 6 34 356 289 294 332 327 311 333 342 30 28 91 126 128 93 85 72 30 334 356 324 292 303 311 315 338 323 319 286 230 213 201 203 203 200 198 199
246 253 234 311 330 332 16 249 269 300 332 322 319 242 338 21 338 8 151 173 123 117 56 49 44 325 26 341 321 313 322 328 324 303 298 226 205 208 205 206 203 201 201
229 267 232 242 264 292 264 251 237 338 318 305 313 242 270 289 303 332 82 179 159 136 104 87 44 354 357 327 324 310 325 331 318 303 262 248 221 214 208 208 206 202 202
231 233 249 231 250 298 307 321 323 312 324 317 348 350 333 352 263 220 138 60 132 119 108 103 59 351 338 332 317 321 331 336 324 305 277 243 235 220 214 213 205 202 200
246 236 234 243 238 271 288 292 285 296 303 305 316 324 313 315 301 311 81 1 2 124 115 88 62 1 345 352 341 337 332 339 342 347 320 265 237 227 214 216 203 193 194
285 226 217 228 252 277 280 275 285 282 288 291 298 313 317 321 326 354 27 13 336 142 115 77 110 10 332 347 319 339 339 346 353 5 6 336 246 224 222 220 209 199 194
282 339 204 245 269 274 279 280 275 282 284 313 306 296 292 292 308 306 7 324 334 52 127 39 321 331 311 181 348 8 347 6 332 337 348 359 31 57 226 227 203 197 198
282 290 277 272 272 272 279 282 282 285 289 294 283 282 271 290 299 302 331 302 151 286 91 189 230 302 357 267 18 17 349 7 14 14 1 347 3 16 334 225 219 185 196
283 289 291 277 276 275 272 273 275 279 288 292 279 274 276 277 281 291 279 227 198 244 217 169 190 197 270 34 46 346 5 356 347 359 345 5 30 31 41 172 208 200 195
274 280 282 279 276 275 277 277 276 278 282 289 280 270 275 271 282 277 308 359 316 292 94 147 193 197 209 250 45 352 1 340 349 13 7 30 37 70 71 91 134 188 200
270 274 274 273 272 272 274 275 276 275 280 286 290 279 269 269 262 272 288 236 228 275 173 174 200 200 187 181 154 277 101 342 342 333 21 50 50 66 92 97 136 174 199
275 271 268 271 270 270 272 273 274 275 273 273 276 276 275 273 268 255 260 181 303 244 211 189 192 198 173 187 179 189 183 217 213 16 286 143 93 66 67 84 106 124 114
267 279 279 271 269 271 273 273 267 265 274 280 280 277 273 274 274 271 250 235 228 229 224 219 202 166 177 204 218 197 191 194 184 195 238 248 137 135 74 67 123 125 131
8 351 342 338 315 287 322 339 280 280 286 290 283 275 274 275 268 261 248 238 227 223 235 214 201 168 191 180 222 232 186 193 186 218 236 201 147 115 125 70 152 151 166
359 0 353 336 328 331 328 336 332 326 312 304 296 289 281 276 277 263 250 242 213 212 229 227 223 186 200 194 214 196 177 173 176 207 205 192 200 151 149 163 156 161 164
330 321 317 318 311 303 305 310 316 319 314 301 289 288 285 278 271 252 251 220 216 219 222 241 256 248 171 184 204 194 213 173 197 181 197 164 192 173 173 171 175 170 176
314 310 305 301 301 288 296 297 306 306 303 299 288 284 278 276 266 247 241 231 225 224 226 231 241 238 190 186 194 193 177 150 156 183 180 166 179 172 193 174 167 170 182
302 296 294 296 294 288 287 295 297 294 296 289 290 289 288 281 269 241 226 229 224 217 226 224 221 211 200 194 189 177 185 185 196 191 188 174 178 169 184 190 180 184 182
294 292 292 288 286 288 291 285 289 288 285 287 294 291 291 290 291 237 220 218 209 208 205 205 216 204 201 196 196 200 198 207 217 155 188 167 167 161 168 212 207 198 190
Height
830 831 830 822 819 818 815 819 820 818 817 817 811 814 813 812 812 813 812 813 812 810 813 815 817 819 822 823 825 826 827 829 830 833 834 836 843 845 848 853 856 859 861
831 829 828 827 824 820 821 818 821 819 816 813 813 810 810 810 810 809 808 810 811 811 813 814 815 816 818 819 820 821 823 824 827 828 829 832 837 841 846 849 853 857 858
831 829 827 822 817 821 824 822 824 820 819 812 807 805 805 805 807 808 807 808 810 811 813 814 815 815 816 816 817 817 818 821 822 824 825 827 830 837 842 846 849 854 857
827 826 824 823 818 823 827 826 825 824 820 817 809 804 804 804 806 807 808 809 810 812 814 814 815 816 815 815 814 814 815 817 817 818 819 821 824 831 836 842 846 851 855
823 824 823 823 822 824 826 828 828 824 820 815 809 805 804 804 805 806 805 808 811 813 813 814 814 814 814 813 812 812 813 814 813 812 812 813 816 822 829 835 841 846 851
818 820 825 824 825 826 827 827 825 822 822 819 813 808 804 801 803 805 805 807 809 811 813 813 814 814 814 813 812 811 811 810 808 805 804 805 810 816 824 830 835 841 848
816 818 823 825 825 824 825 825 826 825 821 821 816 809 804 801 803 804 805 809 809 811 812 813 814 813 813 812 811 810 809 807 805 802 799 800 805 811 818 826 831 837 844
818 820 822 823 823 823 820 819 822 824 822 821 820 814 808 803 803 805 805 808 810 811 811 812 813 813 811 811 811 810 808 805 802 800 798 799 803 808 815 822 828 834 840
818 820 823 824 824 821 816 816 813 817 818 816 818 816 812 810 804 803 806 807 809 811 811 811 812 813 812 811 811 810 807 805 802 800 798 798 801 806 811 818 824 830 836
815 817 819 821 821 819 815 809 813 814 816 815 814 810 808 806 808 807 804 806 808 809 811 812 811 812 812 811 809 808 806 803 801 799 798 798 799 803 809 814 819 824 832
812 813 814 815 817 816 814 812 813 813 815 815 812 809 805 803 800 795 799 805 810 810 810 810 808 811 812 810 809 807 805 801 799 797 796 796 797 799 803 805 813 817 826
807 807 810 812 813 814 815 815 815 816 815 815 812 808 805 803 796 788 789 800 803 808 808 808 807 809 809 809 807 805 803 801 798 796 794 795 795 797 799 803 807 811 821
805 803 807 809 810 812 812 814 814 814 812 812 810 808 807 804 798 795 794 800 803 806 807 807 807 808 808 808 806 805 802 801 799 797 795 794 793 795 797 798 800 805 814
806 806 806 806 807 807 809 810 810 810 809 807 808 808 807 805 801 798 800 802 804 803 807 808 808 807 807 806 805 805 801 801 800 797 795 794 793 792 792 792 789 800 803
805 805 805 805 805 804 804 805 806 805 805 806 806 806 805 804 803 800 799 800 801 804 802 805 806 806 806 805 804 804 802 802 800 798 797 795 793 791 790 786 791 768 807
805 804 805 805 804 803 802 803 804 804 804 805 804 804 803 802 799 798 796 796 798 799 800 801 803 804 805 806 804 804 803 802 801 799 798 795 793 792 790 788 788 797 801
804 804 804 803 802 801 801 801 801 802 802 802 802 801 800 798 797 797 799 803 804 802 802 804 803 802 802 804 805 804 804 803 802 801 800 797 795 793 792 792 794 796 798
801 801 801 800 799 798 798 798 798 798 799 799 799 797 796 794 793 795 799 791 800 796 799 801 802 801 801 803 803 804 804 804 802 802 801 799 798 796 793 793 796 800 798
797 797 796 796 796 795 795 794 794 794 794 794 794 793 792 790 789 792 794 796 792 800 797 796 796 799 799 801 802 802 803 803 802 802 802 799 799 799 795 794 796 800 803
794 794 795 794 793 792 791 790 789 789 789 790 790 790 788 786 786 788 790 790 789 794 794 794 794 794 795 799 800 800 802 802 801 802 801 801 799 800 799 797 796 797 801
790 790 790 790 790 791 791 788 787 786 785 784 784 784 784 783 783 783 787 787 788 790 791 790 790 789 793 796 796 796 798 800 800 801 801 801 799 798 801 799 798 800 802
791 789 789 789 787 788 787 787 785 784 783 781 780 779 779 777 777 777 778 780 783 784 786 786 785 784 786 791 792 794 795 797 800 800 800 799 800 800 801 800 800 802 804
793 792 789 788 787 786 784 783 783 781 780 778 776 775 774 773 772 772 773 775 774 776 778 781 781 781 782 786 789 791 792 793 794 797 799 799 799 799 800 801 801 802 803
793 792 789 787 784 781 781 779 778 777 775 774 772 772 769 767 766 768 768 768 769 771 773 776 778 780 780 783 786 788 790 792 793 795 797 798 798 799 800 802 802 802 803
788 787 786 783 781 776 776 776 774 771 770 768 768 767 764 762 760 762 762 764 765 767 768 772 774 776 778 781 784 786 788 790 790 792 795 795 797 799 800 800 801 802 802
784 783 780 778 776 772 771 769 768 765 763 762 762 760 758 755 753 754 757 759 761 763 763 767 770 773 775 779 782 783 785 786 786 789 791 793 794 796 800 800 800 801 801